Home > Products > State Listing > Louisiana Data
Latest:
 RWRSHV |  RWRLCH |  RWRLA |
  [top]

000
ASUS44 KLIX 290711
RWRLA
LOUISIANA WEATHER ROUNDUP
NATIONAL WEATHER SERVICE NEW ORLEANS LA
200 AM CDT SUN MAY 29 2016

NOTE: "FAIR" INDICATES FEW OR NO CLOUDS BELOW 12,000 FEET WITH NO
      SIGNIFICANT WEATHER AND/OR OBSTRUCTIONS TO VISIBILITY.
      SKY/WX - SKY CONDITION AND SIGNIFICANT WEATHER.
      TMP - AIR TEMPERATURE.    DP   - DEWPOINT TEMPERATURE.
      RH  - RELATIVE HUMIDITY.  PRES - PRESSURE.
      HX  - HEAT INDEX.         WCI  - WIND CHILL INDEX.

*  THESE STATIONS ARE NOT NWS OR FAA STATIONS AND ARE NOT UNDER
   NWS QUALITY CONTROL.

LAZ040-048-061>063-065-066-069-290800-
SOUTHEAST LOUISIANA

CITY           SKY/WX    TMP DP  RH WIND       PRES   REMARKS
N.O. AUDUBON   NOT AVBL
N.O. INTL ARPT PTCLDY    72  69  90 CALM      30.04F
N.O. LAKEFRONT CLEAR     74  69  85 E5        30.05F
N.O. DOWNTOWN* FAIR      76  70  82 CALM      30.05F
RESERVE*       FAIR      71  69  93 CALM      30.04F FOG
SLIDELL        PTCLDY    67  66  97 CALM      30.05F
BATON ROUGE    CLEAR     70  67  90 CALM      30.04F
BOOTHVILLE     PTCLDY    73  72  96 CALM      30.04F
BELLE CHASSE   CLEAR     69  68  96 CALM      30.04F
BOGALUSA*      FAIR      66  63  89 CALM      30.07F
GALLIANO*      SUNNY     67  66  97 CALM      30.03F FOG
NEW ROADS*     FAIR      70  68  93 CALM      30.04F
GONZALES*      FAIR      67  67 100 CALM      30.04F
HAMMOND*       CLEAR     68  64  88 CALM      30.04F
HOUMA*         CLEAR     70  70 100 CALM      30.04S FOG
PORT FOURCHON* SUNNY     77  72  83 SE6       30.03F

$$

LAZ041-044-053-054-290800-
SOUTHWEST LOUISIANA

CITY           SKY/WX    TMP DP  RH WIND       PRES   REMARKS
LAKE CHARLES   FOG       74  73  97 CALM      30.02F VSB 1/2
LAFAYETTE      CLOUDY    72  69  90 CALM      30.03F
PATTERSON      CLEAR     70  69  97 CALM      30.04F
SALT POINT     NOT AVBL
NEW IBERIA     CLOUDY    72  69  90 CALM      30.04F
CHENAULT AIRPK NOT AVBL

$$

LAZ027-028-290800-
CENTRAL LOUISIANA

CITY           SKY/WX    TMP DP  RH WIND       PRES   REMARKS
FORT POLK      CLEAR     70  69  96 S2        30.03F
ALEXANDRIA INT CLEAR     70  70 100 SE5       30.01F FOG
ALEXANDRIA     CLEAR     68  65  90 CALM      30.03F FOG

$$

LAZ001-002-290800-
NORTHWEST LOUISIANA

CITY           SKY/WX    TMP DP  RH WIND       PRES   REMARKS
SHREVEPORT     MOCLDY    72  70  93 CALM      30.02F
BARKSDALE AFB  CLOUDY    70  70 100 S3        30.03F
DTN SHREVEPORT CLOUDY    74  70  87 CALM      30.03F

$$

LAZ014-016-290800-
NORTHEAST LOUISIANA

CITY           SKY/WX    TMP DP  RH WIND       PRES   REMARKS
MONROE         CLEAR     70  69  97 CALM      30.03F
TALLULAH       PTCLDY    72  69  90 CALM      30.03F

$$





  [top]

000
ASUS44 KLCH 290710
RWRLCH
REGIONAL WEATHER ROUNDUP
NATIONAL WEATHER SERVICE LAKE CHARLES LA
200 AM CDT SUN MAY 29 2016

Note: "fair" indicates few or no clouds below 12,000 feet with no
significant weather and/or obstructions to visibility.


ACROSS SOUTHEAST TEXAS

CITY           SKY/WX    TMP DP  RH WIND       PRES   REMARKS
BEAUMONT       CLEAR     71  70  96 CALM      30.02F
BEAUMONT CITY  FAIR      72  70  93 CALM      30.04R
ORANGE         SUNNY     70  68  93 CALM      30.04F FOG
JASPER         CLEAR     67  66  97 CALM      30.06S
$$

ACROSS CENTRAL LOUISIANA

CITY           SKY/WX    TMP DP  RH WIND       PRES   REMARKS
LEESVILLE      CLEAR     70  69  96 S2        30.03F
FULLERTON      FAIR      70  67  90 CALM      30.01F
ALEXANDRIA INT CLEAR     70  70 100 SE5       30.01F FOG
ESLER FIELD    CLEAR     68  65  90 CALM      30.03F FOG
DERIDDER       FAIR      69  68  95 CALM      30.05F
OAKDALE        MOSUNNY   67  66  97 CALM      30.03F FOG
OPELOUSAS      FAIR      71  69  95 CALM      30.03F
$$

ACROSS SOUTHWEST AND SOUTH CENTRAL LOUISIANA

CITY           SKY/WX    TMP DP  RH WIND       PRES   REMARKS
SULPHUR        MOSUNNY   76  75  97 CALM      30.03F
LAKE CHARLES   FOG       74  73  97 CALM      30.02F VSB 1/2
CHENNAULT INT  NOT AVBL
CAMERON PHI    MOSUNNY   79  73  83 S6        30.04F
DEQUINCY       FAIR      69  69 100 CALM      30.04S
JENNINGS       FAIR      73  73 100 MISG      30.02F
LAFAYETTE      CLOUDY    72  69  90 CALM      30.03F
NEW IBERIA     CLOUDY    72  69  90 CALM      30.04F
ABBEVILLE      FAIR      71  71 100 CALM      30.03F
PATTERSON      CLEAR     70  69  97 CALM      30.04F
SALT POINT     NOT AVBL
$$

SELECTED SITES ACROSS THE REGION

CITY           SKY/WX    TMP DP  RH WIND       PRES   REMARKS
HOUSTON BUSH   CLOUDY    73  72  96 CALM      30.03S
HOUSTON HOBBY  MOCLDY    75  72  90 S3        30.02F
GALVESTON      MOCLDY    78  76  93 SE5       30.04R
COLLEGE STAT   CLOUDY    75  72  90 SE6       30.03F
CONROE         CLOUDY    71  71 100 CALM      30.05R
HUNTSVILLE     MOCLDY    74  71  91 S6        30.05R
LUFKIN         CLEAR     69  68  96 CALM      30.04R
SHREVEPORT     MOCLDY    72  70  93 CALM      30.02F
MONROE         CLEAR     70  69  97 CALM      30.03F
NATCHEZ MS     CLEAR     70  64  83 S5        30.04F
BATON ROUGE    CLEAR     70  67  90 CALM      30.04F
N.O. INTL ARPT PTCLDY    72  69  90 CALM      30.04F
SLIDELL        PTCLDY    67  66  97 CALM      30.05F
$$

MARINE REPORTS

STATION/POSITION TIME  SKY/WX   TEMP    WIND        PRES    VSBY
                                AIR SEA DIR/SP/G
                 (UTC)          (F)     (DEG/KT/KT) (MB)    (MI)
BUOY 30 S HIGH I 0650            79 82  140/ 10/ 12 1016.0F
WVE H/P(F/S)=  3/ 6

SEA RIM ST PARK  0700            78     180/  6/  7 1017.2F
PORT ARTHUR      0600               79  180/  2/  3 1017.1F
SABINE PASS N    0600            78 80  180/  4/  6 1018.4R
TEXAS POINT      NOT AVBL
CALCASIEU PASS   0600            79 81  170/  7/ 10 1016.2F
LK CHARLES BEACH 0600            76 78              1017.3F
MARSH ISLAND     0600            79                   N/A
FRESH WATER LOCK 0600            77 81  120/  4/  5 1017.6F
AMERADA PASS     0600            72 76   70/  2/  3 1017.1F
$$





000
ASUS44 KLIX 290511
RWRLA
LOUISIANA WEATHER ROUNDUP
NATIONAL WEATHER SERVICE NEW ORLEANS LA
1200 AM CDT SUN MAY 29 2016

NOTE: "FAIR" INDICATES FEW OR NO CLOUDS BELOW 12,000 FEET WITH NO
      SIGNIFICANT WEATHER AND/OR OBSTRUCTIONS TO VISIBILITY.
      SKY/WX - SKY CONDITION AND SIGNIFICANT WEATHER.
      TMP - AIR TEMPERATURE.    DP   - DEWPOINT TEMPERATURE.
      RH  - RELATIVE HUMIDITY.  PRES - PRESSURE.
      HX  - HEAT INDEX.         WCI  - WIND CHILL INDEX.

*  THESE STATIONS ARE NOT NWS OR FAA STATIONS AND ARE NOT UNDER
   NWS QUALITY CONTROL.

LAZ040-048-061>063-065-066-069-290600-
SOUTHEAST LOUISIANA

CITY           SKY/WX    TMP DP  RH WIND       PRES   REMARKS
N.O. AUDUBON     N/A     73  70  92 MISG        N/A
N.O. INTL ARPT PTCLDY    73  69  87 CALM      30.06S
N.O. LAKEFRONT CLEAR     74  69  85 E5        30.06F
N.O. DOWNTOWN* FAIR      75  70  84 SE3       30.07S
RESERVE*       FAIR      73  71  93 CALM      30.06S
SLIDELL        CLEAR     69  68  96 CALM      30.06S
BATON ROUGE    CLEAR     72  68  87 CALM      30.07R
BOOTHVILLE     CLEAR     74  72  93 SE3       30.06F
BELLE CHASSE   CLEAR     69  68  96 CALM      30.06S
BOGALUSA*      FAIR      69  65  89 CALM      30.09R
GALLIANO*      CLEAR     69  67  94 CALM      30.06R
NEW ROADS*     FAIR      73  69  89 CALM      30.07S
GONZALES*      FAIR      69  69 100 CALM      30.06S
HAMMOND*       CLEAR     70  66  88 CALM      30.06S
HOUMA*         CLEAR     70  70  99 CALM      30.06S FOG
PORT FOURCHON* CLEAR     77  72  83 SE6       30.06R

$$

LAZ041-044-053-054-290600-
SOUTHWEST LOUISIANA

CITY           SKY/WX    TMP DP  RH WIND       PRES   REMARKS
LAKE CHARLES   FOG       75  73  93 SE5       30.04F VSB 3/4
LAFAYETTE      CLEAR     74  71  91 CALM      30.06R
PATTERSON      CLEAR     71  70  96 CALM      30.07S
SALT POINT       N/A     73  71  93 CALM      30.05
NEW IBERIA     CLEAR     73  70  90 SE3       30.07R
CHENAULT AIRPK NOT AVBL

$$

LAZ027-028-290600-
CENTRAL LOUISIANA

CITY           SKY/WX    TMP DP  RH WIND       PRES   REMARKS
FORT POLK      CLEAR     71  70  94 E5        30.04F
ALEXANDRIA INT CLEAR     73  70  90 CALM      30.03S
ALEXANDRIA     CLEAR     71  68  90 CALM      30.05S FOG

$$

LAZ001-002-290600-
NORTHWEST LOUISIANA

CITY           SKY/WX    TMP DP  RH WIND       PRES   REMARKS
SHREVEPORT     CLEAR     74  70  87 SE5       30.03S
BARKSDALE AFB  CLEAR     71  71 100 SE3       30.03S
DTN SHREVEPORT CLEAR     75  69  81 SE3       30.03S

$$

LAZ014-016-290600-
NORTHEAST LOUISIANA

CITY           SKY/WX    TMP DP  RH WIND       PRES   REMARKS
MONROE         CLEAR     72  70  93 SE3       30.06R
TALLULAH       CLEAR     72  69  90 CALM      30.05S

$$





  [top]

000
ASUS44 KSHV 290510
RWRSHV

WEATHER ROUNDUP FOR THE FOUR STATE AREA
NATIONAL WEATHER SERVICE SHREVEPORT LA
1200 AM CDT SUN MAY 29 2016

NOTE:  "FAIR" INDICATES FEW OR NO CLOUDS BELOW 12000 FEET
WITH NO SIGNIFICANT WEATHER AND/OR OBSTRUCTIONS TO VISIBILITY.

!LAZ001-LAZ014-TXZ097-290600
SHREVEPORT...MONROE...TEXARKANA RADIOS

CITY           SKY/WX    TMP DP  RH WIND       PRES   REMARKS
SHREVEPORT     CLEAR     74  70  87 SE5       30.03S
MONROE         CLEAR     72  70  93 SE3       30.06R
NATCHITOCHES   CLEAR     72  72 100 CALM      30.04F
TEXARKANA      CLEAR     70  68  93 CALM      30.05R
$$

!LAZ001-LAZ014-TXZ097-290600
OTHER LOCATIONS...

CITY           SKY/WX    TMP DP  RH WIND       PRES   REMARKS
DOWNTOWN SHV   CLEAR     75  69  81 SE3       30.03S
BOSSIER CITY   CLEAR     71  71 100 SE3       30.03S
RUSTON         CLEAR     73  70  88 CALM      30.08S
LITTLE ROCK    CLEAR     70  66  87 S3        30.04S
EL DORADO      CLEAR     69  68  96 CALM      30.05R
JACKSON        CLEAR     70  66  87 CALM      30.07S
NEW ORLEANS    PTCLDY    73  69  87 CALM      30.06S
HOUSTON        CLOUDY    74  72  93 CALM      30.04R
LUFKIN         CLOUDY    73  69  87 S5        30.04R
TYLER          PTCLDY    75  71  87 SE6       30.04R
DAL FT WORTH   CLOUDY    80  72  76 SE9       29.99S
$$


!TXZ136-TXZ165-290600
TYLER...LUFKIN RADIOS

CITY           SKY/WX    TMP DP  RH WIND       PRES   REMARKS
TYLER          PTCLDY    75  71  87 SE6       30.04R
GILMER         NOT AVBL
LONGVIEW       CLEAR     72  71  97 CALM      30.03R
LUFKIN         CLOUDY    73  69  87 S5        30.04R
$$

!TXZ136-TXZ165-290600
OTHER LOCATIONS...

CITY           SKY/WX    TMP DP  RH WIND       PRES   REMARKS
NACOGDOCHES    PTCLDY    73  72  94 S5        30.04S
BEAUMONT       CLOUDY    73  71  93 CALM      30.03R
HOUSTON        CLOUDY    74  72  93 CALM      30.04R
COLLEGE STN    CLOUDY    78  72  81 S7        30.04R
AUSTIN         CLOUDY    77  74  90 VRB3      30.05R THUNDER
DAL FT WORTH   CLOUDY    80  72  76 SE9       29.99S
TEXARKANA      CLEAR     70  68  93 CALM      30.05R
SHREVEPORT     CLEAR     74  70  87 SE5       30.03S
FORT POLK      CLEAR     71  70  94 E5        30.04F
LAKE CHARLES   FOG       75  73  93 SE5       30.04F VSB 3/4
$$





000
ASUS44 KLCH 290510
RWRLCH
REGIONAL WEATHER ROUNDUP
NATIONAL WEATHER SERVICE LAKE CHARLES LA
1200 AM CDT SUN MAY 29 2016

Note: "fair" indicates few or no clouds below 12,000 feet with no
significant weather and/or obstructions to visibility.


ACROSS SOUTHEAST TEXAS

CITY           SKY/WX    TMP DP  RH WIND       PRES   REMARKS
BEAUMONT       CLOUDY    73  71  93 CALM      30.03R
BEAUMONT CITY  FAIR      74  71  90 CALM      30.04S
ORANGE         PTCLDY    73  70  91 CALM      30.05S
JASPER         PTCLDY    69  68  94 CALM      30.07S
$$

ACROSS CENTRAL LOUISIANA

CITY           SKY/WX    TMP DP  RH WIND       PRES   REMARKS
LEESVILLE      CLEAR     71  70  94 E5        30.04F
FULLERTON      FAIR      71  69  93 CALM      30.03S
ALEXANDRIA INT CLEAR     73  70  90 CALM      30.03S
ESLER FIELD    CLEAR     71  68  90 CALM      30.05S FOG
DERIDDER       FAIR      70  68  95 CALM      30.07S
OAKDALE        CLEAR     69  69  98 CALM      30.05F
OPELOUSAS      FAIR      72  70  93 E3        30.06S
$$

ACROSS SOUTHWEST AND SOUTH CENTRAL LOUISIANA

CITY           SKY/WX    TMP DP  RH WIND       PRES   REMARKS
SULPHUR        PTCLDY    76  74  93 E3        30.05S
LAKE CHARLES   FOG       75  73  93 SE5       30.04F VSB 3/4
CHENNAULT INT  NOT AVBL
CAMERON PHI    PTCLDY    79  75  89 SE7       30.07S
DEQUINCY       FAIR      71  71 100 CALM      30.05S
JENNINGS       FAIR      75  73  94 SE5       30.05S
LAFAYETTE      CLEAR     74  71  91 CALM      30.06R
NEW IBERIA     CLEAR     73  70  90 SE3       30.07R
ABBEVILLE      FAIR      72  72 100 CALM      30.06S
PATTERSON      CLEAR     71  70  96 CALM      30.07S
SALT POINT       N/A     73  71  93 CALM      30.05
$$

SELECTED SITES ACROSS THE REGION

CITY           SKY/WX    TMP DP  RH WIND       PRES   REMARKS
HOUSTON BUSH   CLOUDY    74  72  93 CALM      30.04R
HOUSTON HOBBY  CLOUDY    77  73  87 CALM      30.03R
GALVESTON      MOCLDY    78  74  87 SE9       30.03S
COLLEGE STAT   CLOUDY    78  72  81 S7        30.04R
CONROE         MOCLDY    75  72  90 CALM      30.06R
HUNTSVILLE     CLOUDY    77  72  84 S6        30.05R
LUFKIN         CLOUDY    73  69  87 S5        30.04R
SHREVEPORT     CLEAR     74  70  87 SE5       30.03S
MONROE         CLEAR     72  70  93 SE3       30.06R
NATCHEZ MS     CLEAR     72  66  83 SE5       30.07S
BATON ROUGE    CLEAR     72  68  87 CALM      30.07R
N.O. INTL ARPT PTCLDY    73  69  87 CALM      30.06S
SLIDELL        CLEAR     69  68  96 CALM      30.06S
$$

MARINE REPORTS

STATION/POSITION TIME  SKY/WX   TEMP    WIND        PRES    VSBY
                                AIR SEA DIR/SP/G
                 (UTC)          (F)     (DEG/KT/KT) (MB)    (MI)
BUOY 30 S HIGH I 0450            80 83  130/ 10/ 12 1016.1F
WVE H/P(F/S)=  3/ 6

SEA RIM ST PARK  0500            79     150/  5/  6 1017.3S
PORT ARTHUR      0400               79  160/  4/  6 1017.2R
SABINE PASS N    0400            79 80  160/  5/  7 1018.3R
TEXAS POINT      NOT AVBL
CALCASIEU PASS   0400            79 81  160/  7/  8 1016.5R
LK CHARLES BEACH 0400            78 78              1017.9R
MARSH ISLAND     0400            79                   N/A
FRESH WATER LOCK 0400            77 81  120/  5/  6 1018.3R
AMERADA PASS     0400            73 77   80/  2/  3 1017.7R
$$





000
ASUS44 KLIX 290311
RWRLA
LOUISIANA WEATHER ROUNDUP
NATIONAL WEATHER SERVICE NEW ORLEANS LA
1000 PM CDT SAT MAY 28 2016

NOTE: "FAIR" INDICATES FEW OR NO CLOUDS BELOW 12,000 FEET WITH NO
      SIGNIFICANT WEATHER AND/OR OBSTRUCTIONS TO VISIBILITY.
      SKY/WX - SKY CONDITION AND SIGNIFICANT WEATHER.
      TMP - AIR TEMPERATURE.    DP   - DEWPOINT TEMPERATURE.
      RH  - RELATIVE HUMIDITY.  PRES - PRESSURE.
      HX  - HEAT INDEX.         WCI  - WIND CHILL INDEX.

*  THESE STATIONS ARE NOT NWS OR FAA STATIONS AND ARE NOT UNDER
   NWS QUALITY CONTROL.

LAZ040-048-061>063-065-066-069-290400-
SOUTHEAST LOUISIANA

CITY           SKY/WX    TMP DP  RH WIND       PRES   REMARKS
N.O. AUDUBON   NOT AVBL
N.O. INTL ARPT PTCLDY    74  70  87 CALM      30.06S
N.O. LAKEFRONT PTCLDY    74  68  81 CALM      30.07R
N.O. DOWNTOWN* FAIR      76  70  82 S3        30.07S
RESERVE*       FAIR      74  71  91 CALM      30.07R
SLIDELL        CLEAR     71  70  96 CALM      30.06S
BATON ROUGE    CLEAR     75  68  78 SE5       30.06R
BOOTHVILLE     MOCLDY    74  70  87 E5        30.07R
BELLE CHASSE   PTCLDY    71  69  93 CALM      30.06R
BOGALUSA*      FAIR      73  67  82 CALM      30.09R
GALLIANO*      MOCLDY    73  70  90 CALM      30.06R
NEW ROADS*     FAIR      76  70  83 SE7       30.05R
GONZALES*      FAIR      73  68  83 CALM      30.05S
HAMMOND*       CLEAR     72  68  88 CALM      30.07R
HOUMA*         PTCLDY    70  70  99 E3        30.06S
PORT FOURCHON* CLEAR     77  70  78 E7        30.06R

$$

LAZ041-044-053-054-290400-
SOUTHWEST LOUISIANA

CITY           SKY/WX    TMP DP  RH WIND       PRES   REMARKS
LAKE CHARLES   FOG       76  72  87 S5        30.03R VSB 1/2
LAFAYETTE      CLEAR     77  72  84 CALM      30.04R
PATTERSON      NOT AVBL
SALT POINT       N/A     75  72  90 CALM      30.03S
NEW IBERIA     CLEAR     75  71  87 SE7       30.05S
CHENAULT AIRPK NOT AVBL

$$

LAZ027-028-290400-
CENTRAL LOUISIANA

CITY           SKY/WX    TMP DP  RH WIND       PRES   REMARKS
FORT POLK      NOT AVBL
ALEXANDRIA INT CLEAR     75  71  87 CALM      30.02R
ALEXANDRIA     CLEAR     73  70  90 CALM      30.04R

$$

LAZ001-002-290400-
NORTHWEST LOUISIANA

CITY           SKY/WX    TMP DP  RH WIND       PRES   REMARKS
SHREVEPORT     CLEAR     75  71  87 CALM      30.00R
BARKSDALE AFB  NOT AVBL
DTN SHREVEPORT CLEAR     78  69  73 SE3       30.01R

$$

LAZ014-016-290400-
NORTHEAST LOUISIANA

CITY           SKY/WX    TMP DP  RH WIND       PRES   REMARKS
MONROE         CLEAR     74  71  91 CALM      30.04R
TALLULAH       CLEAR     74  70  87 CALM      30.05R

$$






000
ASUS44 KLIX 290111
RWRLA
LOUISIANA WEATHER ROUNDUP
NATIONAL WEATHER SERVICE NEW ORLEANS LA
800 PM CDT SAT MAY 28 2016

NOTE: "FAIR" INDICATES FEW OR NO CLOUDS BELOW 12,000 FEET WITH NO
      SIGNIFICANT WEATHER AND/OR OBSTRUCTIONS TO VISIBILITY.
      SKY/WX - SKY CONDITION AND SIGNIFICANT WEATHER.
      TMP - AIR TEMPERATURE.    DP   - DEWPOINT TEMPERATURE.
      RH  - RELATIVE HUMIDITY.  PRES - PRESSURE.
      HX  - HEAT INDEX.         WCI  - WIND CHILL INDEX.

*  THESE STATIONS ARE NOT NWS OR FAA STATIONS AND ARE NOT UNDER
   NWS QUALITY CONTROL.

LAZ040-048-061>063-065-066-069-290200-
SOUTHEAST LOUISIANA

CITY           SKY/WX    TMP DP  RH WIND       PRES   REMARKS
N.O. AUDUBON     N/A     76  72  89 MISG        N/A
N.O. INTL ARPT CLOUDY    76  68  76 SE8       30.05R
N.O. LAKEFRONT CLEAR     76  69  79 SE10      30.05S
N.O. DOWNTOWN* FAIR      75  71  87 SE6       30.07R
RESERVE*       FAIR      78  70  78 SE6       30.06R
SLIDELL        CLEAR     76  70  82 SE6       30.05R
BATON ROUGE    MOCLDY    81  70  69 E9        30.04R
BOOTHVILLE     CLOUDY    74  70  87 N3        30.06S
BELLE CHASSE   CLOUDY    74  71  91 SE7       30.05S
BOGALUSA*      FAIR      79  67  66 S3        30.07R
GALLIANO*      CLOUDY    76  70  80 E6        30.05S
NEW ROADS*     FAIR      81  70  70 CALM      30.03R
GONZALES*      MOCLDY    75  69  81 S5        30.04S
HAMMOND*       CLEAR     75  66  73 S6        30.06R
HOUMA*         CLOUDY    71  70  97 CALM      30.05S
PORT FOURCHON* MOCLDY    75  72  88 E9        30.05F

$$

LAZ041-044-053-054-290200-
SOUTHWEST LOUISIANA

CITY           SKY/WX    TMP DP  RH WIND       PRES   REMARKS
LAKE CHARLES   CLEAR     80  72  76 S5        30.00R
LAFAYETTE      CLOUDY    81  72  74 S3        30.02R
PATTERSON      PTCLDY    76  69  79 NE5       30.05S
SALT POINT       N/A     79  73  82 CALM      30.02
NEW IBERIA     CLOUDY    79  71  76 S5        30.03R
CHENAULT AIRPK NOT AVBL

$$

LAZ027-028-290200-
CENTRAL LOUISIANA

CITY           SKY/WX    TMP DP  RH WIND       PRES   REMARKS
FORT POLK      CLEAR     76  69  78 SE3       30.00S
ALEXANDRIA INT PTCLDY    80  73  79 S6        30.00R
ALEXANDRIA     CLEAR     76  72  87 CALM      30.02R

$$

LAZ001-002-290200-
NORTHWEST LOUISIANA

CITY           SKY/WX    TMP DP  RH WIND       PRES   REMARKS
SHREVEPORT     CLEAR     81  71  71 SE5       29.98R
BARKSDALE AFB  CLEAR     81  70  70 E6        29.99R
DTN SHREVEPORT CLEAR     82  69  64 E7        29.99R

$$

LAZ014-016-290200-
NORTHEAST LOUISIANA

CITY           SKY/WX    TMP DP  RH WIND       PRES   REMARKS
MONROE         CLEAR     79  73  82 SE3       30.02R
TALLULAH       CLEAR     79  68  69 CALM      30.03R

$$






000
ASUS44 KLIX 290011
RWRLA
LOUISIANA WEATHER ROUNDUP
NATIONAL WEATHER SERVICE NEW ORLEANS LA
700 PM CDT SAT MAY 28 2016

NOTE: "FAIR" INDICATES FEW OR NO CLOUDS BELOW 12,000 FEET WITH NO
      SIGNIFICANT WEATHER AND/OR OBSTRUCTIONS TO VISIBILITY.
      SKY/WX - SKY CONDITION AND SIGNIFICANT WEATHER.
      TMP - AIR TEMPERATURE.    DP   - DEWPOINT TEMPERATURE.
      RH  - RELATIVE HUMIDITY.  PRES - PRESSURE.
      HX  - HEAT INDEX.         WCI  - WIND CHILL INDEX.

*  THESE STATIONS ARE NOT NWS OR FAA STATIONS AND ARE NOT UNDER
   NWS QUALITY CONTROL.

LAZ040-048-061>063-065-066-069-290100-
SOUTHEAST LOUISIANA

CITY           SKY/WX    TMP DP  RH WIND       PRES   REMARKS
N.O. AUDUBON     N/A     79  70  74 MISG        N/A
6HR MIN TEMP:  75; 6HR MAX TEMP:  85; 6HR PCP:  0.01;

N.O. INTL ARPT CLOUDY    78  68  71 SE12      30.04R
6HR MIN TEMP:  75; 6HR MAX TEMP:  87; 6HR PCP:  0.07;

N.O. LAKEFRONT CLOUDY    78  68  71 SE13      30.05R
6HR MIN TEMP:  72; 6HR MAX TEMP:  86; 6HR PCP:  0.16;

N.O. DOWNTOWN* FAIR      77  69  76 SE8       30.06R
6HR MIN TEMP:  72; 6HR MAX TEMP:  84; 6HR PCP:  3.01;

RESERVE*       FAIR      80  70  72 SE6       30.04R
6HR MIN TEMP:  77; 6HR MAX TEMP:  87;

SLIDELL        CLOUDY    79  72  79 SE6       30.04R
6HR MIN TEMP:  72; 6HR MAX TEMP:  85; 6HR PCP: TRACE;

BATON ROUGE    CLOUDY    83  69  62 SE7       30.02R
6HR MIN TEMP:  83; 6HR MAX TEMP:  88;

BOOTHVILLE     LGT RAIN  73  70  90 N8        30.06R
6HR MIN TEMP:  74; 6HR MAX TEMP:  83; 6HR PCP: TRACE;

BELLE CHASSE   CLOUDY    76  71  85 E9        30.05R
6HR MIN TEMP:  72; 6HR MAX TEMP:  83; 6HR PCP:  0.35;

BOGALUSA*      FAIR      83  67  58 S9        30.05R
6HR MIN TEMP:  82; 6HR MAX TEMP:  86;

GALLIANO*      CLOUDY    78  70  77 CALM      30.04S THUNDER
6HR MIN TEMP:  78; 6HR MAX TEMP:  88;

NEW ROADS*     FAIR      83  70  63 N5        30.02R
6HR MIN TEMP:  82; 6HR MAX TEMP:  86;

GONZALES*      FAIR      78  69  72 SE8G16    30.02R
6HR MIN TEMP:  77; 6HR MAX TEMP:  87; 6HR PCP:  0.28;

HAMMOND*       SUNNY     79  64  61 SE8       30.04R
HOUMA*         MOSUNNY   72  72 100 CALM      30.03F
PORT FOURCHON* CLOUDY    81  72  74 E15       30.05R

$$

LAZ041-044-053-054-290100-
SOUTHWEST LOUISIANA

CITY           SKY/WX    TMP DP  RH WIND       PRES   REMARKS
LAKE CHARLES   SUNNY     83  70  64 S6        29.99S
6HR MIN TEMP:  83; 6HR MAX TEMP:  87;

LAFAYETTE      CLOUDY    82  71  69 S5        30.01R
6HR MIN TEMP:  82; 6HR MAX TEMP:  87; 6HR PCP:  0.01;

PATTERSON      CLOUDY    81  72  74 SE8       30.05R
6HR MIN TEMP:  81; 6HR MAX TEMP:  87;

SALT POINT     NOT AVBL
NEW IBERIA     SUNNY     82  70  66 S6        30.02R
6HR MIN TEMP:  82; 6HR MAX TEMP:  87;

CHENAULT AIRPK MOSUNNY  N/A N/A N/A S8          N/A

$$

LAZ027-028-290100-
CENTRAL LOUISIANA

CITY           SKY/WX    TMP DP  RH WIND       PRES   REMARKS
FORT POLK      SUNNY     79  68  70 SE6       30.00R
6HR MIN TEMP:  72; 6HR MAX TEMP:  86; 6HR PCP:  0.15;

ALEXANDRIA INT MOSUNNY   83  71  67 SE6       29.99R
6HR MIN TEMP:  82; 6HR MAX TEMP:  86;

ALEXANDRIA     SUNNY     87  70  56 CALM      30.00R
6HR MIN TEMP:  85; 6HR MAX TEMP:  89;


$$

LAZ001-002-290100-
NORTHWEST LOUISIANA

CITY           SKY/WX    TMP DP  RH WIND       PRES   REMARKS
SHREVEPORT     MOSUNNY   86  69  56 S7        29.97S
6HR MIN TEMP:  82; 6HR MAX TEMP:  89;

BARKSDALE AFB  SUNNY     85  69  57 E7        29.98R
6HR MIN TEMP:  83; 6HR MAX TEMP:  89;

DTN SHREVEPORT SUNNY     85  70  60 E6        29.97S
6HR MIN TEMP:  81; 6HR MAX TEMP:  88;


$$

LAZ014-016-290100-
NORTHEAST LOUISIANA

CITY           SKY/WX    TMP DP  RH WIND       PRES   REMARKS
MONROE         PTSUNNY   84  70  62 E3        30.01R
6HR MIN TEMP:  80; 6HR MAX TEMP:  85;

TALLULAH       SUNNY     84  67  56 S3        30.01R
6HR MIN TEMP:  84; 6HR MAX TEMP:  88;


$$






000
ASUS44 KLCH 290010
RWRLCH
REGIONAL WEATHER ROUNDUP
NATIONAL WEATHER SERVICE LAKE CHARLES LA
700 PM CDT SAT MAY 28 2016

Note: "fair" indicates few or no clouds below 12,000 feet with no
significant weather and/or obstructions to visibility.


ACROSS SOUTHEAST TEXAS

CITY           SKY/WX    TMP DP  RH WIND       PRES   REMARKS
BEAUMONT       SUNNY     83  70  64 SE9       29.98R
BEAUMONT CITY  FAIR      85  67  54 SE9       29.99R
ORANGE         CLEAR     84  65  52 S6        30.00S
JASPER         SUNNY     85  70  61 SE5       30.01R
$$

ACROSS CENTRAL LOUISIANA

CITY           SKY/WX    TMP DP  RH WIND       PRES   REMARKS
LEESVILLE      SUNNY     79  68  70 SE6       30.00R
FULLERTON      FAIR      83  70  64 CALM      29.97R
ALEXANDRIA INT MOSUNNY   83  71  67 SE6       29.99R
ESLER FIELD    SUNNY     87  70  56 CALM      30.00R
DERIDDER       FAIR      75  66  72 CALM      30.02S
OAKDALE        CLOUDY    81  75  81 CALM      29.99F
OPELOUSAS      FAIR      83  72  69 CALM      30.01R
$$

ACROSS SOUTHWEST AND SOUTH CENTRAL LOUISIANA

CITY           SKY/WX    TMP DP  RH WIND       PRES   REMARKS
SULPHUR        CLEAR     84  69  60 SE6       30.00S
LAKE CHARLES   SUNNY     83  70  64 S6        29.99S
CHENNAULT INT  MOSUNNY  N/A N/A N/A S8          N/A
CAMERON PHI    CLEAR     81  72  74 S8        30.02F
DEQUINCY       FAIR      84  69  59 S3        29.99S
JENNINGS       FAIR      82  72  69 S5        29.99S
LAFAYETTE      CLOUDY    82  71  69 S5        30.01R
NEW IBERIA     SUNNY     82  70  66 S6        30.02R
ABBEVILLE      FAIR      82  73  72 SE6       30.01R
PATTERSON      CLOUDY    81  72  74 SE8       30.05R
SALT POINT     NOT AVBL
$$

SELECTED SITES ACROSS THE REGION

CITY           SKY/WX    TMP DP  RH WIND       PRES   REMARKS
HOUSTON BUSH   MOSUNNY   83  72  69 SE13      29.94S
HOUSTON HOBBY  MOSUNNY   85  71  63 S12       29.95R
GALVESTON      MOSUNNY   81  75  82 E9        29.98S
COLLEGE STAT   SUNNY     86  73  65 SE15      29.93S
CONROE         SUNNY     86  70  58 SE8       29.95R
HUNTSVILLE     MOSUNNY   88  69  53 S5        29.95R
LUFKIN         SUNNY     84  72  67 SE5       29.96R
SHREVEPORT     MOSUNNY   86  69  56 S7        29.97S
MONROE         PTSUNNY   84  70  62 E3        30.01R
NATCHEZ MS     SUNNY     84  64  51 W3        30.03R
BATON ROUGE    CLOUDY    83  69  62 SE7       30.02R
N.O. INTL ARPT CLOUDY    78  68  71 SE12      30.04R
SLIDELL        CLOUDY    79  72  79 SE6       30.04R
$$

MARINE REPORTS

STATION/POSITION TIME  SKY/WX   TEMP    WIND        PRES    VSBY
                                AIR SEA DIR/SP/G
                 (UTC)          (F)     (DEG/KT/KT) (MB)    (MI)
BUOY 30 S HIGH I 2350            81 84  110/  8/ 12 1015.0R
WVE H/P(F/S)=  3/ 6

SEA RIM ST PARK  0000            81     130/  6/  8 1016.0R
PORT ARTHUR      2300                   130/  5/  9   N/A
SABINE PASS N    2300            81     140/  8/ 10   N/A
TEXAS POINT      NOT AVBL
CALCASIEU PASS   2300            81     160/  6/ 10   N/A
LK CHARLES BEACH 2300            87                   N/A
MARSH ISLAND     2300            84                   N/A
FRESH WATER LOCK 2300            80     190/  7/  8   N/A
AMERADA PASS     2300            82     180/  1/  6   N/A
$$





    US Dept of Commerce
    National Oceanic and Atmospheric Administration
    National Weather Service
    1325 East West Highway
    Silver Spring, MD 20910
    Page Author: NWS Internet Services Team
Disclaimer
Information Quality
Credits
Glossary
Privacy Policy
Freedom of Information Act (FOIA)
About Us
Career Opportunities